This is the latest recevied weather packets stored in our database for station/object K5YNC. If no packets are shown the sender has not sent any weather packets the latest 1 day(s).
| Time | Temp. | Humidity | Pressure | Rain* | Wind** | Luminosity | Snow |
|---|---|---|---|---|---|---|---|
| 1778043676 | 12.22° C | 77% | 1013 hPa | 0 mm | 1.34 m/s, 48° | 0 W/m² | - |
| 1778043373 | 12.22° C | 77% | 1012.8 hPa | 0 mm | 1.79 m/s, 77° | 0 W/m² | - |
| 1778043069 | 12.22° C | 77% | 1013 hPa | 0 mm | 1.79 m/s, 323° | 0 W/m² | - |
| 1778042767 | 12.22° C | 77% | 1012.9 hPa | 0 mm | 1.79 m/s, 330° | 0 W/m² | - |
| 1778042464 | 12.22° C | 77% | 1013.1 hPa | 0 mm | 1.79 m/s, 340° | 0 W/m² | - |
| 1778042161 | 12.78° C | 77% | 1012.9 hPa | 0 mm | 1.34 m/s, 303° | 0 W/m² | - |
| 1778041859 | 12.22° C | 77% | 1013 hPa | 0 mm | 1.34 m/s, 2° | 0 W/m² | - |
| 1778041558 | 12.78° C | 77% | 1013.2 hPa | 0 mm | 1.79 m/s, 39° | 0 W/m² | - |
| 1778041256 | 12.78° C | 78% | 1013.1 hPa | 0 mm | 1.34 m/s, 17° | 0 W/m² | - |
| 1778040954 | 12.78° C | 78% | 1013.2 hPa | 0 mm | 1.34 m/s, 356° | 0 W/m² | - |
| 1778040650 | 12.78° C | 78% | 1013 hPa | 0 mm | 1.34 m/s, 303° | 0 W/m² | - |
| 1778040348 | 12.78° C | 78% | 1013.2 hPa | 0 mm | 1.34 m/s, 15° | 0 W/m² | - |
| 1778040044 | 12.78° C | 78% | 1012.9 hPa | 0 mm | 1.34 m/s, 46° | 0 W/m² | - |
| 1778039742 | 12.78° C | 78% | 1012.8 hPa | 0 mm | 1.79 m/s, 12° | 0 W/m² | - |
| 1778039438 | 12.78° C | 78% | 1012.8 hPa | 0 mm | 0.89 m/s, 36° | 0 W/m² | - |
| 1778039145 | 12.78° C | 78% | 1012.9 hPa | 0 mm | 0.89 m/s, 21° | 0 W/m² | - |
| 1778038832 | 12.78° C | 78% | 1013.1 hPa | 0 mm | 1.79 m/s, 333° | 0 W/m² | - |
| 1778038530 | 12.78° C | 78% | 1013 hPa | 0 mm | 1.34 m/s, 20° | 0 W/m² | - |
| 1778038227 | 12.78° C | 79% | 1013 hPa | 0 mm | 0.89 m/s, 99° | 0 W/m² | - |
| 1778037924 | 12.78° C | 79% | 1013.1 hPa | 0 mm | 0.89 m/s, 341° | 0 W/m² | - |
| 1778037620 | 12.78° C | 78% | 1013.1 hPa | 0 mm | 2.24 m/s, 352° | 0 W/m² | - |
| 1778037318 | 12.78° C | 79% | 1012.9 hPa | 0 mm | 0.89 m/s, 321° | 0 W/m² | - |
| 1778037015 | 12.78° C | 79% | 1012.9 hPa | 0 mm | 0.45 m/s, 327° | 0 W/m² | - |
| 1778036713 | 12.78° C | 79% | 1012.6 hPa | 0 mm | 1.34 m/s, 341° | 0 W/m² | - |
| 1778036410 | 13.33° C | 79% | 1012.5 hPa | 0 mm | 1.79 m/s, 331° | 0 W/m² | - |
* Rain latest hour (hover to see other rain measurements)
** Current wind speed in m/s (hover to see current wind gust speed)